New Castle, PA

10:23 PM EST on December 12, 2017 (GMT -0500)
New Castle Municipal

Weather History for KUCP - October, 2011

Change the Weather History Date:

Friday, October 28, 2011

  Actual Average Record
Temperature  
Mean Temperature 36 °F -  
Max Temperature 43 °F 62 °F 84 °F (1927)
Min Temperature 28 °F 36 °F 19 °F (1936)
Degree Days  
Heating Degree Days 30    
Moisture  
Dew Point 31 °F    
Average Humidity 93    
Maximum Humidity 100    
Minimum Humidity 63    
Precipitation  
Precipitation 0.00 in - - ()
Sea Level Pressure  
Sea Level Pressure 30.21 in    
Wind  
Wind Speed 1 mph (ESE)    
Max Wind Speed 8 mph    
Max Gust Speed -    
Visibility 4 miles    
Events Fog    
Averages and records for this station are not official NWS values.
T = Trace of Precipitation, MM = Missing Value Source: NWS Daily Summary

Daily Weather History Graph

Daily Weather History Graph

Search for Another Location

Airport or City:

Trip Planner

Search our weather history database for the weather conditions in past years. The results will help you decide how hot, cold, wet, or windy it might be!

Date:

Astronomy

Oct. 28, 2011 Rise Set
Actual Time 7:47 AM EDT 6:22 PM EDT
Civil Twilight 7:19 AM EDT 6:51 PM EDT
Nautical Twilight 6:46 AM EDT 7:23 PM EDT
Astronomical Twilight 6:14 AM EDT 7:55 PM EDT
Moon 10:02 AM EDT (10/28) 7:42 PM EDT (10/28)
Length of Visible Light 11h 31m
Length of Day
10h 35m
Waxing Crescent, 5% of the Moon is Illuminated
Oct 28
Waxing Crescent
Nov 2
First Quarter
Nov 10
Full
Nov 18
Last Quarter
Nov 25
New

Hourly Weather History & Observations

Time (EDT) Temp. Windchill Dew Point Humidity Pressure Visibility Wind Dir Wind Speed Gust Speed Precip Events Conditions
12:33 AM 30.2 °F - 30.2 °F 100% 30.12 in 0.8 mi Calm Calm - N/A   Clear
12:35 AM 30.2 °F - 30.2 °F 100% 30.12 in 1.2 mi Calm Calm - N/A   Clear
12:39 AM 30.2 °F - 30.2 °F 100% 30.12 in 2.0 mi Calm Calm - N/A   Clear
12:48 AM 30.2 °F - 30.2 °F 100% 30.12 in 4.0 mi Calm Calm - N/A   Clear
12:56 AM 31.1 °F - 31.1 °F 100% 30.20 in 5.0 mi Calm Calm - N/A   Clear
1:00 AM 30.2 °F - 30.2 °F 100% 30.13 in 1.2 mi Calm Calm - N/A   Clear
1:03 AM 30.2 °F - 30.2 °F 100% 30.13 in 0.8 mi Calm Calm - N/A   Mist
1:11 AM 30.2 °F - 30.2 °F 100% 30.13 in 0.5 mi Calm Calm - N/A Fog Light Freezing Fog
1:13 AM 30.2 °F - 30.2 °F 100% 30.13 in 0.2 mi Calm Calm - N/A Fog Light Freezing Fog
1:56 AM 29.1 °F 25.4 °F 29.1 °F 100% 30.21 in 0.2 mi South 3.5 mph - N/A Fog Light Freezing Fog
2:03 AM 28.4 °F 23.3 °F 28.4 °F 100% 30.14 in 0.8 mi SSW 4.6 mph - N/A   Clear
2:06 AM 30.2 °F 24.3 °F 28.4 °F 93% 30.15 in 1.2 mi South 5.8 mph - N/A   Clear
2:08 AM 30.2 °F 25.4 °F 28.4 °F 93% 30.15 in 0.8 mi South 4.6 mph - N/A   Mist
2:11 AM 30.2 °F 25.4 °F 30.2 °F 100% 30.15 in 0.2 mi Variable 4.6 mph - N/A Fog Light Freezing Fog
2:20 AM 30.2 °F 26.7 °F 30.2 °F 100% 30.15 in 0.2 mi SSE 3.5 mph - N/A Fog Light Freezing Fog
2:56 AM 31.1 °F - 31.1 °F 100% 30.23 in 0.2 mi Calm Calm - N/A Fog Light Freezing Fog
3:33 AM 30.2 °F - 30.2 °F 100% 30.16 in 0.2 mi Calm Calm - N/A Fog Light Freezing Fog
3:56 AM 31.1 °F - 30.0 °F 96% 30.24 in 0.2 mi Calm Calm - N/A Fog Light Freezing Fog
4:56 AM 29.1 °F - 29.1 °F 100% 30.25 in 0.2 mi Calm Calm - N/A Fog Light Freezing Fog
5:03 AM 28.4 °F - 28.4 °F 100% 30.18 in 0.2 mi Calm Calm - N/A Fog Light Freezing Fog
5:11 AM 28.4 °F - 28.4 °F 100% 30.19 in 0.2 mi Calm Calm - N/A Fog Light Freezing Fog
5:18 AM 30.2 °F - 28.4 °F 93% 30.19 in 0.2 mi Calm Calm - N/A Fog Light Freezing Fog
5:47 AM 30.2 °F - 30.2 °F 100% 30.20 in 0.2 mi Calm Calm - N/A Fog Light Freezing Fog
6:56 AM 31.1 °F - 31.1 °F 100% 30.28 in 0.2 mi Calm Calm - N/A Fog Light Freezing Fog
7:56 AM 30.0 °F 26.5 °F 30.0 °F 100% 30.29 in 0.2 mi East 3.5 mph - N/A Fog Light Freezing Fog
8:56 AM 31.1 °F 27.7 °F 31.1 °F 100% 30.31 in 0.2 mi East 3.5 mph - N/A Fog Light Freezing Fog
9:56 AM 32.9 °F - 32.9 °F 100% 30.33 in 0.2 mi Calm Calm - N/A Fog Fog
10:01 AM 33.8 °F - 33.8 °F 100% 30.25 in 0.8 mi Calm Calm - N/A   Overcast
10:04 AM 33.8 °F - 33.8 °F 100% 30.25 in 1.2 mi Calm Calm - N/A   Overcast
10:07 AM 33.8 °F - 33.8 °F 100% 30.25 in 2.0 mi Calm Calm - N/A   Overcast
10:23 AM 33.8 °F 30.8 °F 33.8 °F 100% 30.26 in 4.0 mi East 3.5 mph - N/A   Overcast
10:35 AM 33.8 °F - 33.8 °F 100% 30.25 in 4.0 mi Calm Calm - N/A   Overcast
11:56 AM 37.9 °F 34.4 °F 37.9 °F 100% 30.33 in 10.0 mi SSW 4.6 mph - N/A   Mostly Cloudy
12:09 PM 37.4 °F 34.9 °F 37.4 °F 100% 30.25 in 10.0 mi Variable 3.5 mph - N/A   Mostly Cloudy
12:22 PM 39.2 °F - 39.2 °F 100% 30.24 in 10.0 mi Calm Calm - N/A   Partly Cloudy
12:56 PM 41.9 °F 40.0 °F 32.9 °F 70% 30.30 in 10.0 mi Variable 3.5 mph - N/A   Partly Cloudy
1:56 PM 41.9 °F - 32.0 °F 68% 30.27 in 10.0 mi Calm Calm - N/A   Partly Cloudy
2:56 PM 43.0 °F 38.2 °F 32.0 °F 65% 30.25 in 10.0 mi ENE 8.1 mph - N/A   Partly Cloudy
3:56 PM 43.0 °F 39.5 °F 31.1 °F 63% 30.24 in 10.0 mi East 5.8 mph - N/A   Clear
4:56 PM 41.9 °F 37.5 °F 30.0 °F 63% 30.24 in 10.0 mi East 6.9 mph - N/A   Clear
5:56 PM 41.0 °F 38.0 °F 30.0 °F 65% 30.25 in 10.0 mi East 4.6 mph - N/A   Clear
6:56 PM 38.8 °F 34.6 °F 31.1 °F 74% 30.25 in 10.0 mi ENE 5.8 mph - N/A   Clear
7:56 PM 37.9 °F 34.4 °F 31.1 °F 76% 30.25 in 10.0 mi East 4.6 mph - N/A   Clear
8:56 PM 37.9 °F 33.5 °F 32.0 °F 79% 30.25 in 10.0 mi East 5.8 mph - N/A   Clear
10:56 PM 36.0 °F - 31.1 °F 82% 30.24 in 10.0 mi Calm Calm - N/A   Scattered Clouds
11:56 PM 36.9 °F 34.3 °F 31.1 °F 80% 30.21 in 10.0 mi SE 3.5 mph - N/A   Clear